Location: Chuathbaluk
(61.5726°N, 159.2454°W)
Time: 17:10:08
(UTC+00:00)

ISS - Visible Passes

Search period start: 06 May 2021 00:00
Search period end: 16 May 2021 00:00
Orbit: 418 x 421 km, 51.6° (Epoch: 05 May)

Date Brightness Start Highest point End Pass type
(mag) Time Alt. Az. Time Alt. Az. Time Alt. Az.
07 May -1.6 12:25:54 11° S 12:27:17 13° SSE 12:28:51 10° SE visible
08 May -1.5 11:39:57 11° SSE 11:40:07 11° SSE 11:41:02 10° SE visible
09 May -1.9 12:26:53 11° SSW 12:28:44 15° S 12:30:48 10° SE visible
10 May -1.9 11:40:53 14° S 11:41:32 14° SSE 11:43:25 10° SE visible
11 May -1.7 10:54:49 12° SSE 10:54:49 12° SSE 10:55:53 10° SE visible
11 May -2.0 12:28:06 10° SW 12:30:13 16° S 12:32:20 10° SE visible
12 May -2.0 11:41:37 13° SSW 11:43:00 16° S 11:45:07 10° SE visible
13 May -2.1 10:55:21 15° S 10:55:46 15° S 10:57:49 10° SE visible
13 May -1.9 12:29:51 10° SW 12:31:39 14° SSW 12:33:29 10° SSE visible
14 May -2.0 10:08:39 14° SSE 10:08:39 14° SSE 10:10:25 10° SE visible
14 May -2.0 11:42:26 10° SW 11:44:27 15° S 11:46:28 10° SSE visible
15 May -1.9 09:19:46 10° S 09:21:20 13° SSE 09:22:54 10° SE visible
15 May -2.1 10:55:06 10° SW 10:57:13 16° S 10:59:20 10° SE visible
15 May -1.7 12:32:24 10° SW 12:33:02 10° SSW 12:33:41 10° SSW visible
